Starlink 2705

operational
NORAD ID: 48672 Int'l Des: 2021-044 Owner: SPXS Country: US Constellation: starlink
LEOCIRCULARSTARLINK_TYPE

关于 Starlink 2705

正在加载描述...

实时位置

正在加载3D地球...

即将过境

高度历史

Altitude vs Time

uPlot chart will show altitude changes over time

两行轨道根数

1 48672U 21044AL 25351.74946332 .00001567 00000-0 12400-3 0 9991
2 48672 53.0562 119.4626 0001160 93.6596 266.4525 15.06409184251494
Epoch: Dec 17, 2025 • Age: 12 hours

当前状态

高度 564.5 km
速度 7.58 km/s
星下点 -48.46°S, 174.11°E
发射日期 May 26, 2021
运行时间 4.5 years
类型 internet

技术详情

分类 Payload
质量 260.00 kg
干质量 248.00 kg
总质量 260.00 kg
长度 0.20 m
直径 2.80 m
跨度 9.00 m
形状 Box + pan
制造商 SPXS
平台类型 Starlink
阶段状态 In Orbit
所有者/国家 SPXS/US

大型星座

Loading constellations...